Beaufort, SC

1:05 AM EST on February 12, 2016 (GMT -0500)
Beaufort Marine Corps Air Station

Weather History for KNBC - March, 2012

Change the Weather History Date:

Friday, March 30, 2012

  Actual Average Record
Temperature  
Mean Temperature 72 °F -  
Max Temperature 86 °F 74 °F 87 °F (1954)
Min Temperature 60 °F 55 °F 32 °F (1941)
Cooling Degree Days 7    
Growing Degree Days 22 (Base 50)    
Moisture  
Dew Point 56 °F    
Average Humidity 59    
Maximum Humidity 75    
Minimum Humidity 32    
Precipitation  
Precipitation 0.00 in - - ()
Sea Level Pressure  
Sea Level Pressure 29.97 in    
Wind  
Wind Speed 6 mph (SW)    
Max Wind Speed 13 mph    
Max Gust Speed 20 mph    
Visibility 10 miles    
Events      
Averages and records for this station are not official NWS values.
T = Trace of Precipitation, MM = Missing Value Source: NWS Daily Summary

Daily Weather History Graph

Daily Weather History Graph

Search for Another Location

Airport or City:

Trip Planner

Search our weather history database for the weather conditions in past years. The results will help you decide how hot, cold, wet, or windy it might be!

Date:

Astronomy

Mar. 30, 2012 Rise Set
Actual Time 7:12 AM EDT 7:41 PM EDT
Civil Twilight 6:48 AM EDT 8:06 PM EDT
Nautical Twilight 6:19 AM EDT 8:35 PM EDT
Astronomical Twilight 5:49 AM EDT 9:05 PM EDT
Moon 12:32 PM EDT (3/30) 2:01 AM EDT (3/30)
Length of Visible Light 13h 18m
Length of Day
12h 28m
Waxing Crescent, 49% of the Moon is Illuminated
Mar 30
Waxing Crescent
Mar 30
First Quarter
Apr 6
Full
Apr 13
Last Quarter
Apr 21
New

Hourly Weather History & Observations

Time (EDT) Temp. Heat Index Dew Point Humidity Pressure Visibility Wind Dir Wind Speed Gust Speed Precip Events Conditions
12:56 AM 64.9 °F - 55.9 °F 73% 29.97 in 10.0 mi WSW 3.5 mph - N/A   Clear
1:56 AM 66.0 °F - 57.0 °F 73% 29.96 in 10.0 mi SW 3.5 mph - N/A   Clear
2:56 AM 64.9 °F - 53.1 °F 65% 29.96 in 10.0 mi WSW 4.6 mph - N/A   Clear
3:56 AM 62.1 °F - 53.1 °F 72% 29.95 in 10.0 mi West 4.6 mph - N/A   Clear
4:56 AM 61.0 °F - 53.1 °F 75% 29.95 in 10.0 mi WSW 6.9 mph - N/A   Clear
5:56 AM 62.1 °F - 52.0 °F 70% 29.97 in 10.0 mi SW 8.1 mph - N/A   Clear
6:56 AM 60.1 °F - 52.0 °F 75% 29.98 in 10.0 mi West 4.6 mph - N/A   Clear
7:56 AM 64.0 °F - 53.1 °F 67% 30.00 in 10.0 mi Calm Calm - N/A   Partly Cloudy
8:56 AM 69.1 °F - 55.0 °F 61% 30.03 in 10.0 mi West 5.8 mph - N/A   Partly Cloudy
9:56 AM 73.9 °F - 55.0 °F 52% 30.03 in 10.0 mi West 8.1 mph - N/A   Scattered Clouds
10:56 AM 78.1 °F - 55.9 °F 46% 30.02 in 10.0 mi SW 3.5 mph - N/A   Scattered Clouds
11:56 AM 82.0 °F 81.4 °F 55.0 °F 39% 30.01 in 10.0 mi WSW 10.4 mph - N/A   Scattered Clouds
12:56 PM 84.0 °F - 52.0 °F 33% 29.99 in 10.0 mi SW 11.5 mph 17.3 mph N/A   Scattered Clouds
1:56 PM 84.9 °F - 52.0 °F 32% 29.97 in 10.0 mi SW 10.4 mph 17.3 mph N/A   Scattered Clouds
2:56 PM 84.9 °F - 52.0 °F 32% 29.94 in 10.0 mi Variable 4.6 mph - N/A   Scattered Clouds
3:56 PM 81.0 °F 81.9 °F 62.1 °F 52% 29.92 in 10.0 mi South 8.1 mph - N/A   Clear
4:56 PM 80.1 °F 80.7 °F 59.0 °F 48% 29.91 in 10.0 mi South 12.7 mph 19.6 mph N/A   Clear
5:56 PM 79.0 °F - 61.0 °F 54% 29.92 in 10.0 mi SSW 8.1 mph 17.3 mph N/A   Clear
6:56 PM 75.9 °F - 61.0 °F 60% 29.93 in 10.0 mi SSW 6.9 mph - N/A   Clear
7:56 PM 73.0 °F - 60.1 °F 64% 29.95 in 10.0 mi SSW 6.9 mph - N/A   Clear
8:56 PM 72.0 °F - 61.0 °F 68% 29.95 in 10.0 mi SSW 9.2 mph - N/A   Clear
9:56 PM 71.1 °F - 60.1 °F 68% 29.96 in 10.0 mi SSW 9.2 mph - N/A   Clear
10:56 PM 71.1 °F - 61.0 °F 70% 29.96 in 10.0 mi SSW 6.9 mph - N/A   Partly Cloudy
11:56 PM 72.0 °F - 61.0 °F 68% 29.95 in 10.0 mi SSW 9.2 mph - N/A   Mostly Cloudy